www.pogodaiklimat.ru

Погода и климат >> Архив погоды >> Мексика >> Коацакоалькос


ПОГОДА в Коацакоалькосе

  • Прогноз погоды в Коацакоалькосе
  • Монитор погоды в Коацакоалькосе

АРХИВ ПОГОДЫ в Коацакоалькосе

Время (UTC), дата Ветер
(напр.,м/с)
 
Видим.   Явления Облачность Т
(С)
Тd
(С)
f
(%)
Тe
(С)
Тes
(С)
Комфортность P
(гПа)
Po
(гПа)
Тmin
(С)
Tmax
(С)
R
(мм)
R24
(мм)
S
(см)
18 16.09 СВ 4 8000 м мгла {туман} 8/8 420 м
[Sc]
+29.0 +24.7 78 +41 +44 опасность
перегрева
1013.3 1011.4 +22.8 +29.8 8
21 16.09 СВ 5 10 км мгла {туман} 8/3 700 м
[Cu med, cong Ci fib]
+30.4 +24.7 72 +43 +47 опасность
перегрева
1010.0 1008.1
00 17.09 С 4 10 км мгла {туман} 5/0 1500 м
[Ac trans Ci fib]
+29.0 +24.8 78 +41 +42 опасность
перегрева
1009.3 1007.5 +22.8 +31.8
03 17.09 С 5 4000 м мгла {туман} 5/3 600 м
[Cu med, cong Ac trans]
+28.1 +24.9 83 +40 +40 очень
душно
1010.5 1008.7
09 17.09 С 4 4000 м слаб. морось 8/5 600 м
[Cu med, cong As op]
+27.4 +26.1 93 +41 +41 опасность
перегрева
1010.8 1009.0 1
12 17.09 Ю 7 4000 м слаб. морось 9/6 600 м
[Cu med, cong As op]
+25.0 +23.9 94 +34 +34 очень
душно
1011.5 1009.7 +23.5 +31.8 0.5
15 17.09 С 3 8000 м мгла {туман} 10/9 300 м
[Sc Ac und]
+25.4 +24.0 92 +35 +35 очень
душно
1011.8 1010.0 1
18 17.09 СВ 2 8000 м мгла {туман} 10/9 360 м
[Sc Ac und]
+28.8 +25.3 81 +42 +42 опасность
перегрева
1013.5 1011.5 +23.5 +29.8 1
21 17.09 СВ 2 6000 м мгла {туман} 9/6 360 м
[Cu med, cong Ac trans]
+28.8 +25.3 81 +42 +44 опасность
перегрева
1010.6 1008.8
00 18.09 СВ 2 6000 м мгла {туман} 6/5 360 м
[Cu med, cong Ci]
+28.4 +24.9 81 +41 +41 опасность
перегрева
1010.6 1008.8 +23.5 +30.8
03 18.09 СВ 2 5000 м мгла {туман} 3/0 1500 м
[Ac trans Cs]
+27.2 +25.3 89 +39 +39 очень
душно
1012.3 1010.5
12 18.09 ЮВ 3 5000 м мгла {туман} 6/4 500 м
[Cu med, cong Ac trans]
+24.2 +23.8 98 +33 +33 очень
душно
1011.2 1009.3 +22.1 +30.8
15 18.09 ЮЗ 2 8000 м мгла {туман} 4/3 360 м
[Cu med, cong Ci]
+28.4 +24.0 77 +39 +45 очень
душно
1012.0 1010.2
18 18.09 ЮЗ 1 8000 м мгла {туман} 4/3 360 м
[Cu med, cong Ci]
+32.6 +24.8 64 +46 +62 опасность
перегрева
1011.4 1009.6 +22.1 +33.8
21 18.09 СВ 4 7000 м мгла {туман} 6/3 900 м
[Cu med, cong Ac trans]
+31.2 +24.0 66 +43 +47 опасность
перегрева
1009.3 1007.4
00 19.09 СВ 5 10 км мгла {туман} 4/3 600 м
[Cu med, cong Ac trans]
+30.2 +25.0 74 +44 +44 опасность
перегрева
1008.6 1006.5 +22.1 +34.4
03 19.09 СВ 5 4000 м мгла {туман} 4/3 600 м
[Cu med, cong Ac trans]
+29.0 +25.8 83 +43 +43 опасность
перегрева
1010.0 1008.2
15 19.09 СВ 4 7000 м сильн. дождь {морось} 10/8 240 м
[Sc Ac und]
+28.0 +25.9 88 +42 +42 опасность
перегрева
1011.0 1009.1 16
18 19.09 СЗ 3 8000 м мгла {туман, дождь} 6/5 450 м
[Cu med, cong Ac und]
+31.2 +27.0 78 +49 +56 опасность
перегрева
1010.3 1008.4 +20.8 +34.6 16
21 19.09 С 3 8000 м мгла {туман} 6/5 420 м
[Cu med, cong Ci]
+31.8 +27.4 78 +51 +55 опасность
перегрева
1007.4 1005.6
00 20.09 СВ 4 8000 м мгла {туман} 6/5 360 м
[Cu med, cong Ac trans]
+30.8 +26.9 80 +48 +48 опасность
перегрева
1007.4 1005.6 +20.8 +34.6
03 20.09 СВ 3 4000 м мгла {туман} 5/5 240 м
[Cu med, cong]
+29.3 +27.1 88 +46 +46 опасность
перегрева
1008.9 1007.1
09 20.09 СВ 4 4000 м мгла {туман} 5/5 240 м
[Cu med, cong]
+28.2 +26.2 89 +43 +43 опасность
перегрева
1008.8 1007.0
12 20.09 СВ 4 5000 м мгла {туман} 4/4 330 м
[Cu med, cong]
+28.0 +25.3 85 +41 +41 опасность
перегрева
1009.7 1007.9 +26.8 +34.6
15 20.09 СВ 3 8000 м мгла {туман} 5/4 450 м
[Cu med, cong Ac und]
+29.8 +25.8 79 +44 +48 опасность
перегрева
1011.6 1009.8
18 20.09 СВ 2 8000 м мгла {туман} 4/4 480 м
[Cu med, cong]
+32.0 +27.0 75 +50 +62 опасность
перегрева
1011.0 1009.2 +26.8 +32.8
21 20.09 С 3 10 км мгла {туман} 5/5 240 м
[Cu med, cong]
+32.5 +26.3 70 +49 +54 опасность
перегрева
1009.0 1007.2
00 21.09 С 3 6000 м мгла {туман} 5/4 420 м
[Cu med, cong As op]
+30.2 +26.2 79 +46 +46 опасность
перегрева
1008.9 1007.0 +26.8 +33.8
03 21.09 СВ 5 4000 м мгла {туман} 4/3 600 м
[Cu med, cong Ac trans]
+29.3 +25.4 80 +43 +43 опасность
перегрева
1010.3 1008.5
12 21.09 СВ 5 4000 м мгла {туман} 5/5 600 м
[Cu med, cong]
+27.9 +25.5 87 +41 +41 опасность
перегрева
1010.0 1008.2 +26.5 +33.8
15 21.09 ЮЗ 2 10 км мгла {туман} 5/5 240 м
[Cu med, cong]
+28.7 +25.1 81 +42 +46 опасность
перегрева
1013.2 1011.4
18 21.09 ЮЗ 2 11 км мгла {туман} 5/5 240 м
[Cu med, cong]
+31.3 +25.4 71 +46 +55 опасность
перегрева
1012.9 1011.0 +25.4 +33.0 0.0
21 21.09 С 5 8000 м мгла {туман} 4/3 800 м
[Cu med, cong Ac trans]
+32.0 +25.5 69 +47 +51 опасность
перегрева
1010.0 1008.2
00 22.09 С 5 8000 м мгла {туман} 4/1 600 м
[Cu med, cong Cs]
+30.0 +25.2 76 +44 +44 опасность
перегрева
1010.1 1008.3 +25.4 +33.0
03 22.09 С 5 4000 м мгла {туман} 4/4 600 м
[Cu med, cong]
+28.8 +24.7 79 +41 +41 опасность
перегрева
1011.5 1009.7
12 22.09 штиль 0 3000 м мгла {дождь} 6/6 210 м
[Cu med, cong]
+24.5 +24.2 98 +34 +34 очень
душно
1011.4 1009.6 +23.0 +33.0 17
15 22.09 штиль 0 10 км мгла {туман} 3/3 600 м
[Cu med, cong]
+27.0 +24.3 85 +38 +44 очень
душно
1013.6 1011.8
18 22.09 Ю 3 10 км мгла {туман} 4/4 600 м
[Cu med, cong]
+30.6 +25.5 74 +45 +55 опасность
перегрева
1013.3 1011.5 +23.0 +31.5
21 22.09 С 4 15 км мгла {туман} 3/3 600 м
[Cu med, cong]
+31.4 +24.8 68 +45 +50 опасность
перегрева
1011.0 1009.2
00 23.09 С 5 15 км мгла {туман} 3/3 600 м
[Cu med, cong]
+30.2 +25.7 77 +45 +45 опасность
перегрева
1009.8 1008.0 +23.0 +32.6
03 23.09 С 5 4000 м мгла {туман} 4/4 600 м
[Cu med, cong]
+28.6 +25.1 81 +41 +41 опасность
перегрева
1010.7 1008.9
12 23.09 Ю 4 4000 м мгла {туман} 3/3 600 м
[Cu med, cong]
+24.4 +23.0 92 +32 +32 очень
душно
1011.0 1009.2 +23.2 +32.6
15 23.09 ЮВ 2 6000 м в посл. час морось {туман} 9/8 150 м
[Sc Ac trans]
+26.6 +25.4 93 +39 +40 очень
душно
1013.4 1011.5 0.2

 

Местоположение метеостанции Коацакоалькос (Мексика): широта 18.13 долгота -94.41 высота над уровнем моря 22 м.

В архиве по умолчанию представлена погода в Коацакоалькосе за последнюю неделю. Архивные данные за месяц целиком и за предыдущие месяцы, начиная с января 2011 года, Вы можете получить, выбрав интересующий диапазон дат из раскрывающегося списка и нажав кнопку "Ввод!".


*Определитесь, кто Вы:
робот инопланетянин человек

Внимание! Время в таблицах - всемирное. Для получения местного времени необходимо прибавить поправку, которая равна -6 ч.

Смотрите также архив погоды в соседних городах и на ближайших метеорологических станциях:

Погода в Вильяэрмосе (Мексика) (157 км)
Погода в Тустла-Гутьерресе (Мексика) (205 км)
Погода в Веракрусе (Мексика) (212 км)
Погода в Арриаге (Мексика) (218 км)
Погода в Салина-Крусе (Мексика) (233 км)
Погода в Сан-Кристобаль-де-лас-Касасе (Мексика) (243 км)
Погода в Оахаке (Мексика) (272 км)
Погода в Кордове (Мексика) (279 км)
Погода в Оризабе (Мексика) (295 км)
Погода в Халапе (Мексика) (307 км)

Пояснения к столбцам:

Ветер - указаны скорость ветра в м/с - средняя за 10 мин, порывы в срок и между сроками (в фигурных скобках) и направление, откуда дует ветер: С - северный, СВ - северо-восточный, В - восточный, ЮВ - юго-восточный, Ю - южный, ЮЗ - юго-западный, З - западный, СЗ - северо-западный.
Видимость - горизонтальная дальность видимости в метрах или километрах. При видимости от 1 до 10 км при отсутствии осадков обычно наблюдается дымка, при ухудшении видимости до 1 км и менее - туман. В сухую погоду видимость может ухудшаться дымом, пылью или мглою.
Явления - указаны атмосферные явления, наблюдавшиеся в срок или в последний час перед сроком; фигурными скобками обозначены явления, наблюдавшиеся между сроками (за 1-3 часа до срока); квадратными скобками обозначены град или гололедные отложения с указанием их диаметра в мм.
Облачность - указаны через наклонную черту общая и нижняя облачность в баллах и высота нижней границы облаков в метрах; квадратными скобками обозначены формы облаков: Ci - перистые, Cs - перисто-слоистые, Cc - перисто-кучевые, Ac - высококучевые, As - высокослоистые, Sc - слоисто-кучевые, Ns - слоисто-дождевые, Cu - кучевые, Cb - кучево-дождевые. Подробнее классификацию облаков см. в Атласе облаков (PDF).
T - Температура воздуха - температура, измеренная на высоте 2 м над землей.
Td - Температура точки росы - температура, при понижении до которой содержащийся в воздухе водяной пар достигнет насыщения.
f - Относительная влажность воздуха - влажноcть воздуха, измеренная на высоте 2 м над землей.
Te - Эффективная температура - температура, которую ощущает одетый по сезону человек в тени. Характеристика душности погоды. При расчете учитывается влияние влажности воздуха и скорости ветра на теплоощущения человека.
Tes - Эффективная температура на солнце - температура, которую ощущает человек, с поправкой на солнечный нагрев. Характеристика знойности погоды. Зависит от высоты солнца над горизонтом, облачности и скорости ветра. Ночью, в пасмурную погоду, а также при ветре 12 м/с и более поправка равна нулю.
P - Атмосферное давление - приведенное к уровню моря атмосферное давление.
Po - Атмосферное давление - измеренное на уровне метеостанции атмосферное давление.
Tmin - Минимальная температура - минимум температуры воздуха на высоте 2 м над землей.
Tmax - Максимальная температура - максимум температуры воздуха на высоте 2 м над землей.
R - Количество осадков - Количество выпавших осадков за период времени, мм. При наведении курсора мыши на число - период времени, за который выпало указанное количество осадков.
R24 - Количество осадков - Количество выпавших осадков за 24 часа, мм.
S - Снежный покров - Высота снежного покрова, см. При наведении курсора мыши на число - состояние снежного покрова и степень покрытия местности в баллах.